This is the latest recevied weather packets stored in our database for station/object LY3FF-10. If no packets are shown the sender has not sent any weather packets the latest 10 day(s).
| Time | Temp. | Humidity | Pressure | Rain* | Wind** | Luminosity | Snow |
|---|---|---|---|---|---|---|---|
| 1787859640 | 15.56° C | 71% | 1005.9 hPa | - | - | - | - |
| 1787858840 | 15.56° C | 70% | 1005.9 hPa | - | - | - | - |
| 1787858024 | 16.11° C | 69% | 1005.9 hPa | - | - | - | - |
| 1787857163 | 16.67° C | 68% | 1005.8 hPa | - | - | - | - |
| 1787856300 | 17.22° C | 66% | 1005.8 hPa | - | - | - | - |
| 1787855564 | 17.22° C | 65% | 1005.8 hPa | - | - | - | - |
| 1787854760 | 17.78° C | 64% | 1005.5 hPa | - | - | - | - |
| 1787853890 | 17.78° C | 63% | 1005.6 hPa | - | - | - | - |
| 1787853155 | 18.33° C | 62% | 1005.6 hPa | - | - | - | - |
| 1787852320 | 18.33° C | 61% | 1005.4 hPa | - | - | - | - |
| 1787851560 | 18.89° C | 60% | 1005.4 hPa | - | - | - | - |
| 1787850830 | 19.44° C | 59% | 1005.4 hPa | - | - | - | - |
| 1787850080 | 19.44° C | 59% | 1005.4 hPa | - | - | - | - |
| 1787849284 | 20° C | 58% | 1005.4 hPa | - | - | - | - |
| 1787848404 | 20.56° C | 57% | 1005.4 hPa | - | - | - | - |
| 1787847590 | 20° C | 57% | 1005.5 hPa | - | - | - | - |
| 1787846860 | 21.11° C | 56% | 1005.6 hPa | - | - | - | - |
| 1787846084 | 21.67° C | 55% | 1005.6 hPa | - | - | - | - |
| 1787845224 | 22.22° C | 54% | 1005.7 hPa | - | - | - | - |
| 1787844344 | 22.78° C | 54% | 1005.6 hPa | - | - | - | - |
| 1787843580 | 22.78° C | 55% | 1005.7 hPa | - | - | - | - |
| 1787842744 | 21.11° C | 57% | 1005.7 hPa | - | - | - | - |
| 1787841920 | 22.22° C | 57% | 1005.7 hPa | - | - | - | - |
| 1787841106 | 20.56° C | 57% | 1005.7 hPa | - | - | - | - |
| 1787840290 | 21.11° C | 57% | 1005.8 hPa | - | - | - | - |
* Rain since midnight (hover to see other rain measurements)
** Current wind speed in m/s (hover to see current wind gust speed)